sat.trackr.live / text

‹ back to catalog

ONEWEB-0337

NORAD 49203 · 2021-083T

PAYLOAD ACTIVE UNKNOWN

§ Identity

Operator
Country
UK
Launch date
2021-09-14
Launch site
TYMSC
Launch vehicle
Mass (kg)
RCS (m²)

Purposes: comms

External: N2YO · Heavens-Above · Gunter

§ Orbital elements

Epoch: 2026-05-24T23:00:00.251136Z

Period
109.63 min
Inclination
87.8937°
Eccentricity
0.0001809
Mean motion
13.13468437 rev/d
Perigee alt
1,208.4 km
Apogee alt
1,211.1 km
Semi-major
7,587.9 km
B*
7.2136e-4
RAAN
324.8628°
Arg perigee
97.9153°
Mean anomaly
262.2181°
Rev number
22,786

§ Raw data

ONEWEB-03371 49203U 21083T   26144.95833624  .00000276  00000+0  72136-3 0  99952 49203  87.8937 324.8628 0001809  97.9153 262.2181 13.13468437227864

JSON: /api/v1/satellites/49203 · /tle

For live sub-satellite position, see the globe view (requires WebGL).

§ Visibility from observer

Set your observer location to see the next 7 days of passes ≥ 10°. The values pass through the URL so the page stays shareable.

No JS? Fill the form by hand. The geolocation button needs JavaScript.